QPF
0.01 0.01 0.01 0.01 0.01 0.01 0.02 0.03 0.03 0.02 0.01 0.02 0.02 0.02 0.02 0.02 0.03 0.02 0.02 0.02 0.02 0.03 0.03 0.02 0.02 0.02 0.02 0.02 0.02 0.02 0.02 0.02 0.02 0.01 0.01 0.01 0.01 0.01 0.01 0.02 0.02 0.02 0.03 0.05
0.01 0.01 0.01 0.01 0.00 0.00 0.01 0.01 0.02 0.01 0.01 0.01 0.01 0.01 0.01 0.01 0.02 0.02 0.02 0.02 0.02 0.02 0.02 0.02 0.02 0.02 0.02 0.02 0.02 0.02 0.02 0.02 0.02 0.02 0.02 0.02 0.01 0.01 0.01 0.01 0.01 0.02 0.02 0.03
0.01 0.01 0.01 0.01 0.01 0.01 0.01 0.01 0.01 0.01 0.02 0.01 0.01 0.01 0.01 0.01 0.01 0.01 0.02 0.02 0.02 0.02 0.02 0.02 0.02 0.02 0.02 0.02 0.02 0.02 0.02 0.02 0.02 0.02 0.02 0.02 0.02 0.02 0.02 0.01 0.01 0.02 0.02 0.02
0.02 0.01 0.01 0.01 0.01 0.01 0.01 0.01 0.01 0.01 0.01 0.01 0.01 0.01 0.01 0.01 0.01 0.01 0.01 0.01 0.02 0.02 0.01 0.01 0.01 0.01 0.02 0.02 0.02 0.02 0.02 0.02 0.02 0.02 0.02 0.02 0.02 0.02 0.02 0.02 0.02 0.02 0.02 0.03
0.03 0.01 0.01 0.01 0.01 0.01 0.01 0.01 0.01 0.01 0.01 0.01 0.01 0.01 0.01 0.01 0.01 0.01 0.01 0.01 0.01 0.01 0.01 0.01 0.01 0.01 0.01 0.01 0.01 0.01 0.01 0.01 0.02 0.02 0.02 0.02 0.02 0.02 0.03 0.03 0.03 0.02 0.02 0.03
0.03 0.02 0.01 0.01 0.01 0.01 0.01 0.01 0.01 0.01 0.01 0.01 0.01 0.01 0.01 0.01 0.01 0.01 0.01 0.01 0.01 0.01 0.01 0.00 0.00 0.00 0.00 0.00 0.01 0.01 0.01 0.01 0.01 0.01 0.02 0.02 0.02 0.02 0.03 0.03 0.03 0.03 0.03 0.03
0.02 0.02 0.01 0.01 0.01 0.01 0.01 0.01 0.01 0.01 0.01 0.01 0.01 0.01 0.01 0.01 0.01 0.01 0.00 0.00 0.00 0.00 0.00 0.00 0.00 0.00 0.00 0.00 0.00 0.01 0.01 0.01 0.01 0.01 0.02 0.02 0.02 0.02 0.02 0.03 0.03 0.03 0.03 0.02
0.02 0.03 0.02 0.01 0.01 0.01 0.02 0.01 0.01 0.01 0.01 0.01 0.01 0.01 0.00 0.00 0.00 0.00 0.00 0.00 0.00 0.00 0.00 0.00 0.00 0.00 0.00 0.00 0.00 0.01 0.01 0.01 0.01 0.01 0.01 0.02 0.02 0.02 0.02 0.02 0.02 0.02 0.02 0.02
0.02 0.02 0.02 0.02 0.02 0.02 0.02 0.01 0.01 0.01 0.01 0.00 0.00 0.00 0.00 0.00 0.00 0.00 0.00 0.00 0.00 0.01 0.01 0.01 0.00 0.00 0.00 0.00 0.01 0.01 0.01 0.01 0.01 0.01 0.01 0.02 0.02 0.02 0.02 0.02 0.02 0.02 0.02 0.02
0.02 0.02 0.02 0.01 0.01 0.01 0.01 0.01 0.01 0.01 0.01 0.00 0.00 0.00 0.00 0.00 0.00 0.00 0.00 0.01 0.01 0.01 0.01 0.01 0.01 0.01 0.01 0.01 0.01 0.01 0.01 0.01 0.01 0.01 0.01 0.01 0.02 0.02 0.02 0.02 0.02 0.02 0.02 0.02
0.01 0.01 0.01 0.01 0.01 0.01 0.01 0.01 0.00 0.00 0.00 0.00 0.00 0.00 0.00 0.00 0.00 0.01 0.01 0.01 0.01 0.01 0.01 0.01 0.01 0.01 0.01 0.01 0.01 0.01 0.01 0.01 0.01 0.01 0.01 0.01 0.01 0.01 0.01 0.02 0.02 0.03 0.03 0.03
0.01 0.01 0.01 0.01 0.00 0.01 0.01 0.01 0.00 0.00 0.00 0.00 0.00 0.00 0.00 0.00 0.00 0.01 0.01 0.01 0.01 0.01 0.01 0.01 0.01 0.01 0.01 0.01 0.01 0.01 0.01 0.01 0.01 0.01 0.01 0.01 0.01 0.01 0.01 0.01 0.02 0.02 0.02 0.03
0.01 0.01 0.01 0.01 0.00 0.01 0.01 0.01 0.01 0.00 0.00 0.00 0.00 0.00 0.01 0.01 0.00 0.00 0.00 0.00 0.01 0.01 0.01 0.01 0.01 0.01 0.01 0.01 0.01 0.01 0.02 0.01 0.01 0.01 0.01 0.01 0.01 0.01 0.02 0.02 0.02 0.02 0.02 0.02
0.01 0.00 0.00 0.00 0.00 0.01 0.01 0.01 0.01 0.00 0.01 0.01 0.01 0.01 0.01 0.00 0.00 0.00 0.00 0.00 0.01 0.01 0.01 0.01 0.01 0.01 0.01 0.01 0.01 0.01 0.02 0.02 0.02 0.01 0.01 0.01 0.01 0.02 0.02 0.02 0.02 0.02 0.02 0.02
0.01 0.00 0.01 0.00 0.00 0.01 0.01 0.01 0.01 0.01 0.01 0.01 0.01 0.01 0.00 0.00 0.00 0.01 0.01 0.01 0.01 0.01 0.01 0.01 0.01 0.01 0.01 0.01 0.01 0.01 0.01 0.01 0.01 0.01 0.01 0.02 0.02 0.02 0.02 0.02 0.02 0.02 0.02 0.02
0.01 0.00 0.00 0.00 0.00 0.01 0.01 0.01 0.01 0.01 0.01 0.01 0.01 0.01 0.00 0.00 0.00 0.01 0.01 0.01 0.01 0.01 0.01 0.01 0.01 0.01 0.01 0.01 0.01 0.01 0.01 0.01 0.01 0.02 0.01 0.02 0.02 0.02 0.02 0.02 0.02 0.02 0.02 0.02
0.01 0.00 0.00 0.00 0.00 0.00 0.01 0.01 0.01 0.01 0.01 0.01 0.01 0.01 0.01 0.00 0.00 0.00 0.00 0.00 0.01 0.01 0.01 0.01 0.01 0.01 0.01 0.01 0.01 0.01 0.01 0.01 0.01 0.01 0.01 0.01 0.02 0.02 0.02 0.02 0.02 0.02 0.02 0.02
0.01 0.01 0.01 0.01 0.01 0.01 0.01 0.01 0.01 0.01 0.01 0.01 0.01 0.00 0.00 0.00 0.00 0.00 0.00 0.00 0.00 0.00 0.01 0.01 0.01 0.01 0.01 0.01 0.01 0.01 0.01 0.01 0.01 0.01 0.01 0.02 0.02 0.02 0.02 0.02 0.02 0.02 0.02 0.02
0.01 0.01 0.01 0.01 0.01 0.01 0.01 0.01 0.01 0.01 0.01 0.00 0.00 0.00 0.00 0.00 0.00 0.00 0.00 0.00 0.01 0.01 0.01 0.01 0.01 0.01 0.01 0.01 0.01 0.01 0.01 0.01 0.01 0.01 0.02 0.02 0.02 0.02 0.02 0.02 0.02 0.02 0.02 0.02
0.01 0.01 0.01 0.01 0.01 0.01 0.01 0.01 0.00 0.00 0.00 0.00 0.00 0.00 0.00 0.00 0.00 0.00 0.00 0.01 0.01 0.01 0.01 0.01 0.01 0.01 0.01 0.01 0.01 0.01 0.01 0.01 0.01 0.01 0.01 0.02 0.02 0.02 0.02 0.02 0.02 0.02 0.02 0.02
0.01 0.01 0.01 0.01 0.01 0.00 0.00 0.00 0.00 0.00 0.00 0.00 0.00 0.00 0.00 0.00 0.00 0.01 0.01 0.01 0.01 0.01 0.01 0.01 0.01 0.01 0.01 0.01 0.02 0.01 0.01 0.01 0.01 0.01 0.02 0.02 0.02 0.02 0.02 0.02 0.02 0.02 0.02 0.02
0.01 0.01 0.01 0.00 0.00 0.00 0.00 0.00 0.00 0.00 0.00 0.00 0.00 0.00 0.00 0.00 0.00 0.00 0.01 0.01 0.01 0.01 0.01 0.01 0.01 0.01 0.02 0.02 0.01 0.01 0.01 0.01 0.01 0.01 0.01 0.01 0.02 0.02 0.02 0.02 0.02 0.02 0.01 0.01
0.00 0.00 0.00 0.00 0.00 0.00 0.00 0.00 0.00 0.00 0.00 0.00 0.00 0.00 0.00 0.00 0.00 0.01 0.01 0.00 0.01 0.01 0.01 0.01 0.02 0.02 0.02 0.01 0.01 0.01 0.01 0.01 0.01 0.01 0.01 0.01 0.01 0.02 0.02 0.02 0.02 0.01 0.01 0.01
0.00 0.00 0.00 0.00 0.00 0.00 0.00 0.00 0.00 0.00 0.00 0.00 0.01 0.01 0.01 0.01 0.00 0.00 0.00 0.00 0.01 0.01 0.01 0.02 0.02 0.02 0.01 0.01 0.01 0.01 0.01 0.01 0.01 0.01 0.01 0.01 0.01 0.01 0.02 0.02 0.01 0.01 0.01 0.01
0.00 0.00 0.00 0.00 0.00 0.00 0.00 0.00 0.00 0.00 0.00 0.00 0.01 0.01 0.01 0.01 0.01 0.01 0.00 0.00 0.01 0.01 0.01 0.01 0.01 0.01 0.01 0.01 0.01 0.01 0.01 0.01 0.01 0.02 0.02 0.02 0.01 0.01 0.01 0.01 0.01 0.01 0.01 0.01
0.00 0.00 0.00 0.00 0.00 0.00 0.00 0.00 0.00 0.00 0.00 0.01 0.01 0.01 0.00 0.00 0.00 0.00 0.00 0.01 0.00 0.01 0.01 0.01 0.01 0.01 0.01 0.01 0.01 0.01 0.01 0.01 0.01 0.01 0.01 0.02 0.01 0.01 0.01 0.01 0.01 0.01 0.01 0.01
0.00 0.00 0.00 0.00 0.00 0.00 0.00 0.01 0.01 0.01 0.01 0.01 0.01 0.01 0.00 0.00 0.00 0.00 0.00 0.00 0.00 0.00 0.00 0.01 0.01 0.01 0.01 0.01 0.01 0.01 0.01 0.01 0.01 0.01 0.01 0.01 0.01 0.01 0.01 0.01 0.01 0.01 0.01 0.01
MSLP
1024.29 1024.18 1024.13 1024.16 1024.27 1024.50 1024.82 1025.26 1025.78 1026.36 1026.98 1027.59 1028.14 1028.61 1028.96 1029.17 1029.25 1029.21 1029.08 1028.88 1028.65 1028.40 1028.16 1027.91 1027.66 1027.39 1027.08 1026.72 1026.32 1025.89 1025.46 1025.06 1024.72 1024.49 1024.38 1024.40 1024.53 1024.73 1024.97 1025.22 1025.44 1025.61 1025.71 1025.77
1025.61 1025.68 1025.81 1026.00 1026.25 1026.56 1026.92 1027.32 1027.74 1028.18 1028.61 1029.01 1029.35 1029.63 1029.83 1029.95 1030.00 1029.99 1029.94 1029.85 1029.73 1029.61 1029.46 1029.28 1029.06 1028.78 1028.44 1028.03 1027.57 1027.08 1026.58 1026.13 1025.75 1025.46 1025.29 1025.24 1025.28 1025.38 1025.52 1025.66 1025.78 1025.86 1025.89 1025.89
1026.77 1026.95 1027.19 1027.48 1027.81 1028.17 1028.54 1028.91 1029.25 1029.58 1029.86 1030.11 1030.31 1030.47 1030.58 1030.66 1030.72 1030.75 1030.77 1030.77 1030.76 1030.73 1030.65 1030.52 1030.33 1030.06 1029.70 1029.27 1028.78 1028.26 1027.75 1027.27 1026.86 1026.54 1026.32 1026.19 1026.14 1026.15 1026.18 1026.22 1026.24 1026.24 1026.21 1026.17
1027.70 1027.92 1028.20 1028.52 1028.87 1029.23 1029.59 1029.91 1030.21 1030.46 1030.66 1030.82 1030.95 1031.05 1031.13 1031.21 1031.29 1031.38 1031.47 1031.55 1031.62 1031.65 1031.64 1031.55 1031.38 1031.13 1030.78 1030.36 1029.89 1029.39 1028.89 1028.43 1028.02 1027.68 1027.42 1027.24 1027.11 1027.03 1026.96 1026.90 1026.83 1026.76 1026.68 1026.61
1028.41 1028.59 1028.83 1029.12 1029.43 1029.76 1030.08 1030.37 1030.62 1030.84 1031.01 1031.14 1031.25 1031.35 1031.45 1031.56 1031.69 1031.83 1031.97 1032.12 1032.24 1032.32 1032.35 1032.30 1032.16 1031.94 1031.64 1031.27 1030.85 1030.40 1029.96 1029.54 1029.16 1028.83 1028.56 1028.33 1028.14 1027.97 1027.82 1027.68 1027.54 1027.40 1027.28 1027.19
1028.92 1029.01 1029.16 1029.36 1029.60 1029.87 1030.14 1030.40 1030.63 1030.84 1031.01 1031.16 1031.29 1031.43 1031.57 1031.72 1031.89 1032.08 1032.27 1032.45 1032.60 1032.72 1032.77 1032.75 1032.66 1032.49 1032.26 1031.96 1031.63 1031.27 1030.91 1030.56 1030.23 1029.93 1029.66 1029.40 1029.17 1028.94 1028.72 1028.51 1028.31 1028.12 1027.96 1027.84
1029.28 1029.25 1029.29 1029.38 1029.53 1029.73 1029.95 1030.18 1030.41 1030.62 1030.82 1031.00 1031.18 1031.36 1031.55 1031.74 1031.95 1032.16 1032.37 1032.57 1032.74 1032.87 1032.94 1032.96 1032.92 1032.81 1032.65 1032.45 1032.22 1031.97 1031.71 1031.44 1031.18 1030.92 1030.66 1030.39 1030.13 1029.86 1029.59 1029.32 1029.08 1028.85 1028.67 1028.52
1029.55 1029.40 1029.33 1029.32 1029.39 1029.52 1029.70 1029.91 1030.13 1030.36 1030.59 1030.81 1031.03 1031.25 1031.47 1031.70 1031.92 1032.14 1032.36 1032.55 1032.72 1032.85 1032.94 1032.99 1032.99 1032.95 1032.88 1032.78 1032.65 1032.50 1032.34 1032.15 1031.96 1031.74 1031.50 1031.23 1030.95 1030.66 1030.36 1030.06 1029.79 1029.54 1029.34 1029.17
1029.75 1029.52 1029.37 1029.30 1029.31 1029.40 1029.54 1029.73 1029.96 1030.20 1030.45 1030.70 1030.94 1031.18 1031.42 1031.65 1031.87 1032.09 1032.28 1032.46 1032.62 1032.75 1032.85 1032.93 1032.97 1033.00 1033.00 1032.98 1032.95 1032.89 1032.80 1032.69 1032.54 1032.36 1032.13 1031.88 1031.59 1031.29 1030.98 1030.68 1030.39 1030.14 1029.93 1029.76
1029.89 1029.65 1029.47 1029.37 1029.36 1029.43 1029.56 1029.75 1029.97 1030.21 1030.47 1030.72 1030.97 1031.21 1031.44 1031.65 1031.86 1032.05 1032.22 1032.38 1032.52 1032.64 1032.76 1032.85 1032.94 1033.01 1033.08 1033.12 1033.15 1033.15 1033.12 1033.05 1032.93 1032.77 1032.56 1032.31 1032.03 1031.73 1031.43 1031.14 1030.87 1030.63 1030.43 1030.25
1029.98 1029.77 1029.63 1029.56 1029.56 1029.63 1029.77 1029.95 1030.17 1030.40 1030.64 1030.88 1031.11 1031.33 1031.53 1031.71 1031.89 1032.05 1032.20 1032.33 1032.46 1032.59 1032.71 1032.82 1032.94 1033.05 1033.15 1033.24 1033.30 1033.33 1033.32 1033.26 1033.16 1033.00 1032.79 1032.55 1032.28 1032.00 1031.72 1031.45 1031.21 1031.00 1030.81 1030.65
1030.00 1029.88 1029.81 1029.80 1029.85 1029.96 1030.11 1030.29 1030.49 1030.70 1030.91 1031.11 1031.31 1031.49 1031.65 1031.81 1031.95 1032.08 1032.21 1032.34 1032.46 1032.59 1032.72 1032.85 1032.99 1033.12 1033.24 1033.34 1033.41 1033.44 1033.43 1033.36 1033.25 1033.08 1032.88 1032.64 1032.38 1032.12 1031.87 1031.64 1031.44 1031.26 1031.10 1030.96
1029.93 1029.93 1029.97 1030.05 1030.16 1030.31 1030.48 1030.65 1030.84 1031.01 1031.18 1031.34 1031.49 1031.62 1031.75 1031.87 1031.99 1032.11 1032.23 1032.35 1032.48 1032.62 1032.77 1032.91 1033.06 1033.20 1033.32 1033.41 1033.47 1033.49 1033.46 1033.38 1033.24 1033.07 1032.86 1032.63 1032.39 1032.15 1031.94 1031.74 1031.58 1031.43 1031.29 1031.16
1029.80 1029.92 1030.07 1030.24 1030.42 1030.60 1030.78 1030.95 1031.11 1031.25 1031.37 1031.48 1031.58 1031.67 1031.77 1031.87 1031.97 1032.08 1032.20 1032.33 1032.48 1032.63 1032.79 1032.94 1033.10 1033.23 1033.35 1033.43 1033.48 1033.47 1033.42 1033.32 1033.17 1032.99 1032.78 1032.56 1032.34 1032.13 1031.95 1031.79 1031.65 1031.52 1031.40 1031.28
1029.62 1029.85 1030.10 1030.34 1030.58 1030.79 1030.97 1031.12 1031.24 1031.34 1031.41 1031.48 1031.53 1031.59 1031.66 1031.74 1031.84 1031.95 1032.08 1032.23 1032.39 1032.55 1032.72 1032.88 1033.04 1033.17 1033.28 1033.35 1033.38 1033.36 1033.29 1033.18 1033.04 1032.86 1032.66 1032.46 1032.26 1032.08 1031.92 1031.78 1031.65 1031.54 1031.42 1031.28
1029.44 1029.75 1030.07 1030.37 1030.63 1030.85 1031.02 1031.14 1031.22 1031.27 1031.30 1031.32 1031.34 1031.37 1031.42 1031.49 1031.59 1031.70 1031.84 1032.00 1032.17 1032.34 1032.51 1032.68 1032.83 1032.96 1033.06 1033.12 1033.15 1033.13 1033.07 1032.97 1032.83 1032.68 1032.50 1032.33 1032.16 1032.00 1031.85 1031.72 1031.60 1031.47 1031.34 1031.18
1029.31 1029.67 1030.02 1030.34 1030.61 1030.82 1030.97 1031.05 1031.09 1031.08 1031.06 1031.04 1031.02 1031.03 1031.06 1031.12 1031.21 1031.33 1031.47 1031.63 1031.80 1031.97 1032.14 1032.30 1032.44 1032.57 1032.67 1032.73 1032.76 1032.76 1032.72 1032.65 1032.55 1032.43 1032.29 1032.15 1032.01 1031.87 1031.73 1031.60 1031.46 1031.32 1031.15 1030.96
1029.24 1029.62 1029.99 1030.31 1030.57 1030.75 1030.86 1030.90 1030.88 1030.83 1030.76 1030.69 1030.64 1030.62 1030.63 1030.67 1030.75 1030.86 1030.99 1031.14 1031.30 1031.46 1031.61 1031.76 1031.89 1032.01 1032.11 1032.19 1032.24 1032.26 1032.26 1032.23 1032.17 1032.10 1032.01 1031.90 1031.79 1031.67 1031.54 1031.39 1031.24 1031.07 1030.87 1030.64
1029.26 1029.65 1030.02 1030.32 1030.56 1030.70 1030.76 1030.75 1030.68 1030.58 1030.46 1030.34 1030.25 1030.19 1030.17 1030.19 1030.25 1030.34 1030.45 1030.57 1030.71 1030.84 1030.98 1031.10 1031.22 1031.33 1031.44 1031.52 1031.59 1031.65 1031.69 1031.70 1031.70 1031.68 1031.63 1031.57 1031.48 1031.37 1031.25 1031.10 1030.92 1030.72 1030.49 1030.24
1029.35 1029.75 1030.11 1030.40 1030.60 1030.71 1030.72 1030.65 1030.53 1030.37 1030.20 1030.03 1029.90 1029.80 1029.74 1029.73 1029.75 1029.81 1029.89 1029.99 1030.09 1030.20 1030.30 1030.41 1030.51 1030.61 1030.71 1030.80 1030.89 1030.98 1031.05 1031.11 1031.16 1031.18 1031.17 1031.14 1031.08 1030.99 1030.87 1030.71 1030.52 1030.30 1030.06 1029.78
1029.48 1029.89 1030.25 1030.53 1030.70 1030.77 1030.74 1030.62 1030.44 1030.23 1030.00 1029.78 1029.60 1029.45 1029.35 1029.30 1029.29 1029.32 1029.37 1029.43 1029.51 1029.59 1029.67 1029.75 1029.83 1029.92 1030.01 1030.11 1030.21 1030.31 1030.41 1030.50 1030.57 1030.63 1030.65 1030.65 1030.61 1030.53 1030.41 1030.26 1030.06 1029.84 1029.58 1029.29
1029.63 1030.06 1030.43 1030.69 1030.85 1030.88 1030.80 1030.64 1030.40 1030.13 1029.85 1029.58 1029.34 1029.15 1029.01 1028.93 1028.89 1028.88 1028.91 1028.95 1029.00 1029.06 1029.12 1029.19 1029.26 1029.33 1029.41 1029.50 1029.60 1029.70 1029.81 1029.91 1029.99 1030.06 1030.11 1030.12 1030.09 1030.02 1029.91 1029.76 1029.57 1029.34 1029.08 1028.80
1029.77 1030.22 1030.60 1030.86 1030.99 1030.99 1030.87 1030.65 1030.37 1030.04 1029.70 1029.39 1029.11 1028.88 1028.70 1028.59 1028.53 1028.51 1028.52 1028.56 1028.60 1028.66 1028.71 1028.77 1028.82 1028.88 1028.95 1029.03 1029.11 1029.20 1029.29 1029.38 1029.46 1029.52 1029.56 1029.58 1029.55 1029.49 1029.38 1029.24 1029.05 1028.83 1028.58 1028.30
1029.89 1030.36 1030.73 1030.98 1031.09 1031.05 1030.89 1030.63 1030.29 1029.92 1029.53 1029.17 1028.86 1028.60 1028.41 1028.28 1028.21 1028.19 1028.21 1028.26 1028.31 1028.37 1028.43 1028.49 1028.54 1028.59 1028.64 1028.69 1028.75 1028.81 1028.87 1028.93 1028.99 1029.03 1029.05 1029.05 1029.02 1028.96 1028.85 1028.71 1028.53 1028.31 1028.06 1027.77
1030.00 1030.47 1030.83 1031.05 1031.12 1031.04 1030.84 1030.53 1030.15 1029.73 1029.31 1028.92 1028.58 1028.30 1028.10 1027.98 1027.92 1027.92 1027.96 1028.02 1028.10 1028.18 1028.26 1028.33 1028.38 1028.42 1028.46 1028.48 1028.51 1028.53 1028.55 1028.57 1028.59 1028.60 1028.59 1028.56 1028.51 1028.43 1028.32 1028.17 1027.99 1027.77 1027.50 1027.20
1030.12 1030.57 1030.89 1031.07 1031.09 1030.96 1030.70 1030.35 1029.93 1029.48 1029.03 1028.62 1028.27 1027.99 1027.80 1027.69 1027.65 1027.67 1027.74 1027.84 1027.95 1028.06 1028.16 1028.24 1028.29 1028.33 1028.35 1028.35 1028.34 1028.33 1028.31 1028.28 1028.25 1028.21 1028.16 1028.10 1028.02 1027.91 1027.77 1027.61 1027.40 1027.16 1026.87 1026.54
1030.28 1030.67 1030.93 1031.04 1031.00 1030.81 1030.51 1030.11 1029.66 1029.18 1028.72 1028.30 1027.95 1027.68 1027.50 1027.41 1027.40 1027.45 1027.55 1027.68 1027.81 1027.95 1028.07 1028.16 1028.23 1028.26 1028.27 1028.24 1028.20 1028.15 1028.08 1028.01 1027.92 1027.84 1027.74 1027.63 1027.50 1027.35 1027.18 1026.98 1026.73 1026.45 1026.13 1025.76
Thickness
5379 5380 5377 5377 5375 5369 5371 5386 5394 5401 5393 5396 5386 5380 5376 5373 5370 5369 5369 5369 5369 5369 5370 5371 5371 5372 5373 5373 5374 5374 5376 5377 5377 5378 5379 5380 5380 5381 5381 5381 5382 5383 5383 5384
5367 5368 5364 5364 5368 5365 5362 5368 5372 5373 5377 5377 5368 5365 5364 5362 5359 5358 5358 5357 5356 5356 5356 5357 5357 5358 5359 5361 5361 5362 5363 5364 5364 5364 5366 5367 5368 5369 5369 5370 5370 5371 5372 5372
5375 5358 5356 5372 5369 5360 5358 5358 5362 5368 5374 5362 5355 5354 5353 5350 5347 5346 5344 5343 5342 5342 5342 5343 5344 5344 5346 5347 5348 5349 5350 5351 5352 5352 5353 5354 5355 5356 5357 5358 5358 5359 5360 5360
5358 5353 5363 5381 5353 5354 5353 5350 5348 5350 5350 5345 5343 5340 5337 5335 5333 5332 5330 5329 5329 5329 5330 5331 5331 5331 5332 5333 5335 5336 5337 5339 5339 5340 5340 5341 5342 5343 5344 5345 5346 5347 5348 5349
5349 5357 5369 5366 5344 5336 5338 5346 5338 5335 5335 5331 5327 5330 5334 5325 5320 5319 5317 5316 5315 5316 5317 5318 5319 5320 5320 5322 5323 5324 5326 5327 5327 5327 5328 5329 5330 5331 5332 5333 5334 5335 5336 5336
5339 5350 5360 5363 5333 5323 5328 5342 5331 5322 5322 5319 5319 5333 5334 5316 5309 5307 5306 5304 5304 5304 5305 5307 5308 5308 5309 5310 5312 5313 5314 5314 5315 5315 5316 5317 5317 5318 5319 5320 5322 5323 5324 5324
5334 5341 5352 5330 5313 5317 5335 5341 5316 5311 5309 5307 5309 5312 5307 5300 5298 5296 5295 5294 5293 5293 5294 5295 5296 5297 5298 5299 5299 5300 5301 5302 5303 5303 5303 5304 5305 5306 5307 5308 5309 5310 5311 5312
5324 5330 5338 5307 5305 5313 5319 5307 5302 5300 5297 5295 5294 5291 5289 5287 5286 5285 5284 5283 5283 5283 5283 5284 5284 5284 5286 5287 5287 5287 5288 5290 5291 5291 5292 5292 5293 5294 5294 5295 5296 5297 5298 5299
5316 5323 5308 5297 5298 5296 5293 5293 5291 5290 5286 5284 5281 5280 5278 5277 5276 5274 5273 5273 5272 5271 5272 5272 5272 5272 5273 5274 5274 5275 5276 5277 5279 5279 5280 5280 5281 5282 5282 5283 5285 5285 5286 5287
5296 5301 5294 5287 5284 5282 5280 5279 5278 5276 5274 5273 5271 5269 5268 5267 5266 5265 5263 5262 5261 5261 5261 5262 5261 5260 5261 5262 5262 5264 5265 5266 5267 5268 5269 5269 5269 5270 5272 5273 5274 5274 5275 5276
5287 5288 5284 5283 5277 5274 5271 5268 5266 5265 5263 5262 5260 5259 5257 5256 5255 5254 5253 5252 5251 5250 5250 5250 5250 5250 5250 5251 5251 5253 5253 5254 5256 5257 5258 5258 5259 5259 5260 5261 5262 5264 5265 5265
5295 5287 5281 5281 5271 5266 5261 5259 5257 5255 5253 5252 5251 5249 5248 5246 5245 5244 5243 5242 5241 5240 5240 5240 5240 5240 5240 5240 5240 5241 5243 5244 5245 5246 5246 5247 5249 5249 5249 5250 5251 5252 5253 5253
5271 5266 5264 5262 5258 5255 5253 5250 5248 5246 5244 5243 5241 5239 5238 5237 5235 5234 5232 5232 5231 5230 5229 5229 5230 5230 5230 5230 5230 5231 5231 5232 5233 5235 5236 5237 5238 5239 5241 5241 5241 5241 5242 5243
5256 5254 5255 5253 5250 5245 5242 5240 5238 5237 5235 5233 5231 5230 5228 5227 5226 5224 5223 5221 5220 5220 5220 5220 5220 5220 5220 5220 5221 5221 5222 5223 5223 5224 5226 5227 5227 5228 5229 5230 5231 5231 5231 5232
5247 5245 5245 5242 5238 5235 5233 5231 5230 5229 5227 5225 5223 5220 5219 5218 5216 5215 5213 5211 5211 5210 5210 5210 5210 5210 5210 5210 5211 5212 5212 5213 5214 5214 5215 5216 5216 5216 5217 5217 5219 5220 5220 5220
5240 5236 5234 5232 5231 5228 5225 5224 5222 5221 5219 5217 5214 5212 5210 5208 5207 5205 5204 5203 5202 5202 5201 5200 5201 5200 5200 5200 5201 5202 5203 5203 5204 5204 5205 5206 5206 5206 5206 5207 5207 5208 5209 5209
5232 5231 5228 5226 5224 5221 5218 5216 5214 5213 5210 5208 5206 5203 5201 5200 5199 5197 5196 5194 5193 5192 5192 5192 5192 5191 5191 5191 5191 5193 5194 5194 5194 5194 5195 5196 5196 5196 5196 5196 5197 5197 5198 5198
5226 5226 5223 5221 5218 5214 5211 5208 5206 5203 5201 5199 5197 5195 5193 5192 5191 5190 5187 5186 5185 5185 5185 5184 5183 5183 5182 5182 5182 5183 5184 5184 5184 5184 5185 5186 5186 5186 5186 5186 5186 5187 5187 5187
5217 5215 5213 5210 5208 5205 5202 5200 5197 5195 5192 5190 5189 5187 5185 5184 5182 5181 5179 5178 5178 5179 5178 5176 5176 5175 5175 5174 5175 5175 5174 5174 5174 5174 5175 5175 5175 5175 5175 5175 5176 5176 5177 5177
5209 5207 5204 5201 5199 5196 5194 5191 5189 5186 5184 5181 5180 5178 5177 5176 5174 5173 5172 5172 5172 5171 5170 5169 5169 5168 5167 5167 5167 5166 5166 5165 5165 5165 5164 5165 5165 5165 5165 5165 5165 5166 5166 5166
5201 5198 5195 5193 5190 5188 5186 5183 5180 5178 5175 5173 5171 5170 5169 5168 5166 5165 5165 5167 5165 5163 5162 5162 5161 5161 5160 5159 5159 5158 5157 5156 5155 5155 5155 5155 5155 5155 5155 5155 5156 5156 5156 5157
5192 5190 5187 5184 5182 5180 5177 5174 5172 5169 5167 5165 5163 5162 5161 5160 5159 5158 5157 5157 5157 5156 5155 5155 5154 5154 5153 5152 5151 5149 5148 5147 5147 5146 5145 5145 5145 5146 5146 5146 5146 5146 5147 5147
5184 5182 5179 5176 5174 5171 5168 5165 5162 5161 5159 5158 5156 5154 5153 5152 5151 5151 5151 5150 5148 5148 5147 5147 5147 5146 5146 5144 5143 5141 5140 5139 5139 5138 5137 5137 5137 5137 5137 5137 5137 5137 5137 5138
5175 5172 5169 5167 5163 5161 5159 5157 5154 5152 5151 5149 5148 5146 5145 5144 5143 5142 5141 5140 5140 5139 5139 5139 5139 5139 5138 5136 5135 5134 5133 5132 5131 5131 5130 5130 5129 5129 5129 5129 5129 5129 5129 5129
5165 5162 5159 5156 5155 5154 5151 5148 5145 5144 5143 5142 5140 5138 5136 5135 5135 5134 5132 5131 5131 5131 5131 5130 5130 5130 5129 5128 5127 5126 5125 5125 5124 5124 5123 5123 5123 5122 5122 5122 5122 5122 5122 5122
5156 5153 5151 5148 5146 5144 5142 5140 5138 5136 5134 5133 5132 5130 5129 5127 5125 5124 5123 5123 5122 5122 5122 5122 5121 5121 5120 5120 5119 5118 5118 5117 5116 5116 5116 5115 5115 5115 5115 5115 5115 5115 5115 5115
5146 5144 5142 5140 5138 5135 5133 5131 5129 5127 5126 5124 5123 5122 5120 5119 5117 5116 5115 5115 5114 5114 5114 5113 5113 5113 5112 5111 5111 5110 5110 5110 5109 5109 5109 5109 5109 5109 5109 5109 5109 5109 5110 5110